Regional Weather Roundup
Issued by NWS

Home | Current Version | Previous Version | Text Only | Print | Product List | Glossary Off
Versions: 1 2 3 4 5 6 7 8 9 10 11 12 13 14 15 16 17 18 19 20 21 22 23 24 25 26 27 28 29 30 31 32 33 34 35 36 37 38 39 40 41 42 43 44 45 46 47 48 49 50

000
ASUS43 KMPX 270910
RWRMN
WEATHER ROUNDUP FOR MINNESOTA
NATIONAL WEATHER SERVICE TWIN CITIES/CHANHASSEN MN
400 AM CDT WED JUL 27 2016


NOTE: "FAIR" INDICATES FEW OR NO CLOUDS BELOW 12,000 FEET WITH NO
SIGNIFICANT WEATHER AND/OR OBSTRUCTIONS TO VISIBILITY. N/A MEANS
CURRENT SKY AND/OR WEATHER CONDITIONS ARE NOT AVAILABLE.

MNZ060>063-068>070-271000-
   Twin Cities Metro

CITY           SKY/WX    TMP DP  RH WIND       PRES   REMARKS
TWIN CITIES    CLOUDY    78  68  71 SW7       29.97S
ST PAUL        CLOUDY    77  68  73 S3        29.97R
CRYSTAL        CLOUDY    78  67  68 SW7       29.95R
BLAINE         MOCLDY    79  70  73 SW6       29.96S
LAKEVILLE      CLOUDY    73  70  88 SW3       29.98S
EDEN PRAIRIE   CLOUDY    75  70  84 SW6       29.97R
LAKEVILLE      CLOUDY    73  70  88 SW3       29.98S
SOUTH ST PAUL  CLOUDY    75  69  81 CALM      29.97S
LAKE ELMO      FAIR      72  68  88 S6        29.99R
$$
MNZ001>005-007-008-013>017-022>024-027-028-271000-
   Northwest Minnesota

CITY           SKY/WX    TMP DP  RH WIND       PRES   REMARKS
BEMIDJI        CLOUDY    68  59  73 N7        30.00S
HALLOCK        CLOUDY    61  55  82 N6        30.04S
ROSEAU         MOCLDY    59  54  82 NW3       30.04R
WARROAD        CLOUDY    59  54  82 NW3       30.04R
THIEF RVR FALL MOCLDY    64  58  80 NE7       30.03S
CROOKSTON      MOCLDY    64  61  88 N7        30.01S
FOSSTON        CLOUDY    64  57  77 NE8G16    30.01F
DETROIT LAKES  CLOUDY    64  64 100 CALM      30.00S
MOORHEAD       LGT RAIN  66  64  94 CALM      30.00R
PARK RAPIDS    CLOUDY    68  65  90 NW5       29.98R
MAHNOMEN       FAIR      64  61  89 N6        29.99S
$$
MNZ006-009>011-018-025>026-271000-
   North Central Minnesota

CITY           SKY/WX    TMP DP  RH WIND       PRES   REMARKS
BAUDETTE       MOCLDY    66  56  70 N7        30.01S
FLAG ISLAND    PTCLDY    66  55  68 NE6       30.02R
INTL FALLS     CLOUDY    67  56  67 NE3       30.00R
WASKISH        CLOUDY    64  55  72 N5        30.00R
BIG FORK       CLOUDY    63  61  94 CALM      29.99S
LONGVILLE      CLOUDY    66  64  94 CALM      29.97S FOG
GRAND RAPIDS   CLOUDY    65  63  93 CALM      29.99S
CRANE LAKE     CLOUDY    55  55 100 SE1       30.01S
ORR            MOCLDY    63  55  77 CALM      29.97S
COOK           CLOUDY    64  59  82 CALM      30.00R
WALKER         PTSUNNY   68  64  87 CALM      29.99R
$$
MNZ012-019>021-037-271000-
   Northeast Minnesota

CITY           SKY/WX    TMP DP  RH WIND       PRES   REMARKS
DULUTH         CLOUDY    69  67  93 CALM      29.97R
ELY            CLOUDY    64  57  77 CALM      30.00R
HIBBING        CLOUDY    65  60  84 NE5       29.98R
EVELETH        CLOUDY    66  57  72 NE5       30.00R
DULUTH HARBOR  MOCLDY    68  64  88 SW6       29.96R
TWO HARBORS    DRIZZLE   70  64  83 N6        29.96R
SILVER BAY     CLOUDY    66  57  72 CALM      29.97R
GRAND MARAIS     N/A     69  50  50 N6        29.95R
G MARAIS ARPRT CLOUDY    61  50  67 N6        30.02R
$$
MNZ029>031-032-039>041-046>048-054>057-064-271000-
   West Central Minnesota

CITY           SKY/WX    TMP DP  RH WIND       PRES   REMARKS
FERGUS FALLS   LGT RAIN  66  64  94 W10       30.01S
WHEATON        RAIN      68  66  94 NW8       29.99F
MORRIS         TSTM      68  66  94 N5        29.96F
ALEXANDRIA     LGT RAIN  69  67  93 CALM      29.99S
ELBOW LAKE     RAIN      66  66  99 NW8       29.99F
WADENA         CLOUDY    66  64  94 CALM      29.97S
GLENWOOD       CLOUDY    68  66  94 CALM      29.98F
APPLETON       CLOUDY    72  64  78 N5        29.94F
BENSON         CLOUDY    68  63  83 SE3       29.95F
ORTONVILLE     TSTM      68  64  88 NW24G38   29.98R
MADISON        CLOUDY    72  66  83 CALM      29.94S
WILLMAR        FAIR      72  68  88 SE5       29.98S
$$
MNZ033>034-036-042>043-049>051-058-059-271000-
   Central Minnesota

CITY           SKY/WX    TMP DP  RH WIND       PRES   REMARKS
ST CLOUD       CLOUDY    68  66  93 CALM      29.97S
SAUK CENTRE    DRIZZLE   69  65  88 CALM      29.97S
PAYNESVILLE    CLOUDY    68  69 100 S5        29.97F
AITKIN         CLOUDY    61  57  88 CALM      29.95F FOG
PINE RIVER     CLOUDY    64  64 100 CALM      30.00F
BRAINERD       CLOUDY    64  62  93 CALM      29.97S
STAPLES        CLOUDY    64  63  94 CALM      29.97R
LONG PRAIRIE   CLOUDY    68  66  94 CALM      29.98S
LITTLE FALLS   CLOUDY    64  63  94 CALM      29.97F
LITCHFIELD     LGT RAIN  73  73 100 CALM      29.98F
BUFFALO        CLOUDY    74  69  85 SW5       29.98S
MAPLE LAKE     CLOUDY    74  71  90 W3        29.98S
HUTCHINSON     CLOUDY    74  70  89 CALM      29.99S
$$
MNZ037-044-045-052-053-271000-
   East Central Minnesota

CITY           SKY/WX    TMP DP  RH WIND       PRES   REMARKS
PRINCETON      CLOUDY    68  64  88 NW5       29.98R
MORA           CLOUDY    63  63 100 CALM      29.99R THUNDER
CAMBRIDGE      CLOUDY    70  61  73 CALM      29.95S
RUSH CITY      TSTM      68  64  86 CALM      29.97R
MOOSE LAKE     FOG       63  61  94 CALM      29.96S VSB 3/4
HINCKLEY       PTSUNNY   64  64 100 CALM      29.97S
CLOQUET        MOCLDY    64  61  88 CALM      29.98S
MCGREGOR       PTCLDY    61  59  94 CALM      29.98S
$$
MNZ071>073-080-081-089-090-097-098-271000-
   Southwest Minnesota

CITY           SKY/WX    TMP DP  RH WIND       PRES   REMARKS
MONTEVIDEO     CLOUDY    70  66  88 S5        29.96F
GRANITE FALLS  CLOUDY    73  70  88 SE5       29.97S
CANBY          CLOUDY    70  67  92 E3        29.94F
MARSHALL       CLOUDY    71  67  87 SE8       29.94F
REDWOOD FALLS  MOCLDY    72  67  84 S8        29.96F
OLIVIA         CLOUDY    72  68  88 S6        29.96F
PIPESTONE      CLOUDY    72  64  78 S10       29.96F
WINDOM         CLOUDY    72  64  78 S5        29.99S
WORTHINGTON    CLOUDY    71  66  84 S8        30.00S
JACKSON        CLOUDY    72  63  73 SW7       30.00F
TRACY          CLOUDY    72  68  87 S8        29.96F
SLAYTON        MOCLDY    69  66  89 S6        29.99S
$$
MNZ065>067-074>077-082>085-091>093-271000-
   South Central Minnesota

CITY           SKY/WX    TMP DP  RH WIND       PRES   REMARKS
MANKATO        CLOUDY    72  64  78 S3        30.00S
NEW ULM        CLOUDY    70  70 100 SE5       29.98F
ST JAMES       CLOUDY    64  63  94 CALM      29.99F
FAIRMONT       CLOUDY    70  64  83 S6        29.99S
GLENCOE        CLOUDY    73  72  94 S3        29.98S
FARIBAULT      CLOUDY    72  70  94 CALM      30.00S
OWATONNA       CLOUDY    68  64  88 CALM      30.01S
WASECA         PTCLDY    66  64  94 CALM      30.02R
ALBERT LEA     CLEAR     70  64  83 CALM      30.01S
$$
MNZ078>079-086>088-094>096-271000-
   Southeast Minnesota

CITY           SKY/WX    TMP DP  RH WIND       PRES   REMARKS
ROCHESTER      CLEAR     66  65  96 W6        30.03R
RED WING       CLOUDY    70  68  94 CALM      29.97S
STANTON        CLOUDY    72  68  88 SW5       29.98S
DODGE CENTER   MOCLDY    66  64  94 CALM      30.01F
WINONA         CLEAR     70  68  94 CALM      29.99R
AUSTIN         CLEAR     66  64  94 CALM      30.01S
PRESTON        CLEAR     67  64  87 CALM      30.03R
$$
ABBREVIATIONS USED IN REMARKS
   TC - TEMPERATURES IN CELSIUS
  WCI - WIND CHILL INDEX
   HX - HEAT INDEX
  VSB - VISIBILITY
$$




USA.gov is the U.S. government's official web portal to all federal, state and local government web resources and services.